Location: Unspecified
(0.0000°N, 0.0000°E)
Time: 12:41:54
(UTC+00:00)

Vanguard 2 Rocket - Pass Details

Date: 13 December 2018
Orbit: 554 x 3326 km, 32.9° (Epoch: 15 July)

Event Time Altitude Azimuth Distance (km) Brightness Sun altitude
Rises 20:03:15 0° 241° (WSW) 7,252 12.7 -29.4°
Reaches altitude 10° 20:11:30 10° 223° (SW) 6,283 11.9 -31.2°
Maximum altitude 20:22:42 17° 188° (S) 5,406 11.1 -33.7°
Drops below altitude 10° 20:32:30 10° 153° (SSE) 5,422 10.8 -35.8°
Sets 20:38:40 0° 133° (SE) 5,916 10.9 -37.2°
